Powrót do katalogu

STARLINK-37465

AktywnyŁącznośćSSO
NORAD 68847·PAYLOAD·🇺🇸 United States

Wystrzelony Apr 26, 2026 z Vandenberg Space Force Base

Loading…

Następne Przeloty (najbliższe 24 godziny)

TLE

ŚwieżeSource: CelesTrak SupGP

Epoka: Sep 15, 2026, 04:01 UTC

1 68847C 26094J   26258.16784722 -.00058618  00000+0 -18200-2 0  2584
2 68847  97.2831 271.3443 0001428  89.8383 102.8042 15.33463325    16

Śledź STARLINK-37465 w czasie rzeczywistym z AllMySat

Download on the App Store